User: anonymous   Login
Location: Mentone
(34.5413°N, 85.5351°W)
Time: 20:19:00
(UTC-05:00)
Language:

Centaur AC-72 - Orbit

View from above orbital plane
View from above orbital plane
View from above satellite
View from above satellite

Ground track
Ground track

The orbit data is extracted from the following two-line orbital elements,

1 21907U 92013B   17292.78171135 -.00000071 +00000-0 +00000-0 0  9997
2 21907 018.9839 230.0986 6966484 223.5209 055.6297 02.25609006211034
Epoch (UTC): 19 October 2017 18:45:39
Eccentricity: 0.6966484
inclination: 18.9839°
perigee height: 1071 km
apogee height: 35285 km
right ascension of ascending node: 230.0986°
argument of perigee: 223.5209°
revolutions per day: 2.25609006
mean anomaly at epoch: 55.6297°
orbit number at epoch: 21103

The dashed part of the orbit path shows where the satellite is in the earth's shadow,  

DLR